GFSNIL_prec_cloud_003.txt.gz
Cloud_Cover
5 5 5 2 1 2 3 5 5 5 13 10 5 21 96 19 76 5 27 40 14 11
49 39 52 7 5 5 5 5 56 75 7 11 99 51 97 17 0 0 1 5 33 5
95 44 5 5 5 26 63 67 6 5 52 100 28 5 0 0 4 0 3 1 0 0
5 5 10 36 70 56 74 6 5 47 97 5 9 50 5 5 4 5 0 0 0 0
61 91 100 99 30 6 4 5 5 70 39 40 78 6 94 6 5 0 0 0 0 5
99 72 7 5 5 5 5 5 5 7 50 82 75 96 56 5 5 2 0 0 0 5
20 5 5 5 5 28 52 18 5 48 80 42 59 17 9 11 5 3 0 1 5 5
5 26 34 56 96 100 50 25 5 53 5 14 70 91 29 5 5 5 5 5 5 5
46 97 100 100 100 61 52 5 5 7 7 99 100 99 7 63 5 0 0 1 5 5
100 100 100 98 93 64 4 5 5 5 5 27 17 72 100 10 1 1 5 2 3 5
100 97 86 40 22 4 0 3 5 84 18 65 7 23 2 4 0 0 5 5 20 78
100 72 56 10 0 0 0 5 5 5 49 6 5 5 5 0 4 5 5 25 89 100
78 26 5 5 5 5 0 3 5 5 5 5 5 5 5 3 5 5 5 5 18 100
16 37 5 2 5 5 5 5 3 5 3 5 5 5 4 5 5 33 28 5 5 71

GFSNIL_prec_cloud_006.txt.gz
Cloud_Cover
39 5 8 58 40 0 5 5 5 42 48 8 84 76 87 100 99 97 94 79 97 100
10 7 76 7 5 5 9 27 8 10 28 100 100 94 100 89 97 98 41 100 100 100
7 76 5 8 42 23 30 5 12 34 74 48 66 99 98 98 100 92 98 100 100 96
18 38 10 5 5 5 5 5 5 5 5 41 93 100 60 96 100 100 100 100 100 100
16 5 5 5 5 5 23 32 5 5 5 83 94 85 53 100 100 100 100 100 100 100
5 5 5 5 13 53 65 46 5 5 45 23 91 44 99 100 66 99 60 35 79 75
57 19 5 24 33 76 85 16 12 85 76 40 5 15 88 69 79 38 62 65 44 16
36 24 93 94 99 100 32 5 89 24 5 8 24 95 100 100 99 97 37 5 4 2
42 93 78 100 100 71 7 13 92 96 52 94 53 8 6 74 90 42 5 0 0 0
76 99 100 100 71 19 50 27 87 95 64 52 69 5 5 1 0 4 0 0 0 5
100 100 100 98 22 17 5 16 78 98 28 20 5 4 3 5 5 0 0 1 5 5
100 100 99 51 55 5 61 40 100 27 5 5 5 5 5 5 5 5 5 5 5 5
100 99 70 42 7 5 59 29 3 0 4 5 5 5 5 5 5 21 5 5 2 3
94 82 66 14 20 5 76 78 5 5 5 5 4 5 5 5 4 5 5 5 5 5

GFSNIL_prec_cloud_009.txt.gz
Cloud_Cover
52 93 99 9 5 5 5 5 5 4 5 5 70 49 18 14 32 94 87 47 56 98
67 100 86 6 5 5 5 5 5 5 5 28 68 18 11 22 26 100 46 84 100 91
98 98 77 21 5 5 5 5 5 21 74 22 100 36 30 99 62 100 99 73 99 96
98 99 5 5 5 5 5 5 15 69 82 28 78 99 79 92 24 99 91 41 99 100
100 7 13 6 11 48 8 40 98 100 99 78 99 81 49 86 70 41 100 100 90 63
67 22 14 27 95 26 30 100 100 100 91 100 100 95 96 93 95 100 99 100 75 100
80 22 58 97 64 58 100 100 100 100 89 51 94 100 98 100 100 93 99 100 98 92
79 100 100 99 100 100 100 100 100 100 83 69 100 92 9 13 22 99 97 76 17 5
100 100 100 100 100 100 100 58 40 100 100 87 100 30 5 0 0 4 5 6 5 5
100 100 100 100 99 33 5 8 98 100 92 96 78 5 0 0 3 5 30 23 5 5
100 100 100 100 78 85 75 89 100 96 92 83 64 5 0 4 5 14 47 6 5 5
100 100 100 100 99 100 100 81 100 100 78 92 82 5 0 5 3 31 55 24 6 5
100 100 100 100 100 100 99 100 100 100 97 81 54 5 0 1 5 10 62 55 68 38
100 100 100 100 100 100 100 100 100 100 100 68 12 20 4 5 5 7 5 5 37 100

GFSNIL_prec_cloud_012.txt.gz
Cloud_Cover
6 5 5 9 36 94 100 73 5 5 5 5 5 8 50 5 5 42 10 15 76 53
5 8 8 93 96 100 27 6 5 5 5 6 5 5 5 24 12 9 66 98 73 94
24 77 74 92 90 100 65 5 5 5 15 5 5 56 57 9 99 89 11 68 100 79
62 85 91 97 100 94 5 5 5 5 5 14 82 87 6 14 36 69 24 99 95 28
88 100 100 45 59 5 5 5 8 6 5 81 69 92 5 3 5 18 44 5 61 49
82 100 82 100 65 5 8 86 50 5 5 92 16 5 5 8 92 64 99 57 30 4
98 100 100 41 76 40 58 81 60 35 25 57 75 6 20 59 90 49 28 23 5 5
100 93 100 90 63 80 100 94 65 91 94 98 97 100 98 100 100 92 3 4 5 5
99 100 67 100 95 100 82 100 98 100 100 100 100 100 100 100 100 100 5 4 2 0
96 98 100 100 100 100 100 100 100 100 100 100 100 100 100 100 100 3 5 5 4 2
100 95 100 100 100 100 100 99 100 100 100 100 100 100 100 100 20 2 4 5 2 5
100 100 100 100 100 100 100 100 100 100 100 100 100 100 100 13 100 3 5 5 5 5
100 100 100 100 100 100 100 100 100 100 100 100 100 100 100 99 5 5 5 5 5 5
100 100 100 100 100 100 100 100 100 100 100 100 100 100 56 5 4 5 5 5 5 50

GFSNIL_prec_cloud_015.txt.gz
Cloud_Cover
79 100 77 56 92 71 74 20 51 46 58 1 0 0 2 0 3 0 3 5 0 7
100 59 7 97 56 5 29 94 55 5 5 5 5 3 5 5 5 4 5 6 93 66
40 43 48 81 80 91 87 84 23 100 100 5 12 62 50 5 6 93 83 99 100 100
22 97 75 62 100 81 99 77 100 83 13 35 94 97 99 86 88 94 32 75 92 100
98 100 98 77 100 100 100 100 100 60 100 92 99 100 100 82 59 42 99 100 100 100
96 100 100 99 100 94 100 99 100 100 97 91 86 100 91 69 100 100 100 100 100 100
95 100 100 100 98 90 84 99 100 100 100 100 100 100 100 100 86 100 98 95 58 98
100 66 87 100 100 82 62 94 100 82 100 100 100 100 100 100 100 100 100 100 7 83
97 97 85 76 87 100 100 100 100 100 100 100 100 100 100 100 100 100 100 100 19 100
29 23 11 84 100 100 100 100 100 100 98 97 100 100 100 100 100 100 100 33 100 48
89 96 92 100 100 100 100 100 100 100 100 100 100 100 100 100 100 100 52 25 5 1
100 100 100 100 100 100 100 100 100 100 100 100 100 100 100 100 100 56 86 100 4 0
75 100 100 100 100 100 100 100 100 100 100 100 100 100 100 98 60 100 65 2 0 0
100 100 100 100 100 100 100 100 100 100 100 100 100 100 100 88 17 5 5 5 5 5

GFSNIL_prec_cloud_018.txt.gz
Cloud_Cover
23 66 86 83 68 80 99 95 12 100 93 49 68 6 98 10 70 9 5 31 68 74
93 99 89 91 97 100 85 99 100 84 82 99 90 6 5 15 5 5 5 30 16 100
83 98 100 69 85 98 90 96 54 70 87 100 100 97 44 6 5 5 9 44 73 81
95 100 100 100 100 100 79 32 93 68 99 93 100 100 75 95 67 90 93 100 100 100
86 100 62 78 84 73 98 70 97 99 100 95 100 100 97 54 59 36 66 63 70 100
100 78 51 90 76 38 17 77 76 99 96 99 100 100 99 80 48 77 100 100 100 100
43 98 100 100 49 42 26 17 70 98 100 100 100 100 100 100 59 58 87 54 96 99
100 100 100 100 100 17 8 80 94 100 100 88 80 100 100 100 100 100 100 100 100 100
100 100 100 100 99 50 23 99 100 100 85 100 100 100 100 100 100 100 100 100 100 87
100 100 100 94 64 68 96 100 100 100 100 97 100 100 100 100 100 100 100 100 5 5
100 100 96 90 94 100 100 100 100 100 100 100 100 100 100 100 100 100 65 5 5 5
50 70 100 93 100 100 100 100 100 100 100 100 100 100 100 100 100 100 43 8 47 0
100 100 100 100 100 100 100 100 100 100 100 100 100 100 100 100 100 19 5 5 0 0
100 100 100 100 100 100 99 100 100 100 100 100 100 79 18 39 71 5 5 5 5 5

GFSNIL_prec_cloud_021.txt.gz
Cloud_Cover
100 100 99 100 100 100 89 51 92 94 100 100 100 97 100 82 91 91 97 100 49 66
92 96 98 47 99 100 99 90 100 100 100 80 100 100 100 100 100 80 73 64 78 100
8 25 88 100 100 100 88 100 100 100 100 100 97 93 96 100 92 50 46 24 13 97
13 61 85 99 64 100 100 100 100 100 100 100 100 100 99 63 33 89 95 69 100 100
78 17 89 73 100 100 100 100 100 100 100 100 100 100 100 100 99 18 33 45 63 86
73 49 66 100 100 100 100 100 100 100 100 94 98 100 95 75 23 5 8 58 100 100
64 66 85 98 100 100 100 100 100 100 100 100 78 89 90 78 87 84 61 72 90 88
69 16 56 99 100 100 100 100 100 100 100 100 100 99 68 99 100 100 100 99 100 100
5 40 100 100 100 100 100 100 100 100 100 100 100 92 100 90 93 100 98 100 100 100
5 45 44 85 92 100 100 100 100 100 100 100 100 100 100 100 100 100 100 100 99 65
97 100 100 98 99 84 100 100 100 100 100 100 100 100 100 100 100 100 97 52 26 5
66 95 100 100 100 100 100 100 100 100 100 100 100 99 96 83 62 17 10 8 57 5
100 100 97 100 100 100 100 100 100 100 100 100 100 100 78 2 5 5 16 48 5 4
100 100 100 100 100 100 100 100 100 100 100 100 100 88 2 1 5 9 24 5 5 5

GFSNIL_prec_cloud_027.txt.gz
Cloud_Cover
100 100 100 100 100 98 100 100 100 100 99 98 100 100 100 88 95 33 5 5 5 5
12 100 100 100 100 100 100 100 100 88 99 100 100 100 99 100 62 6 8 6 5 5
100 100 100 100 100 100 96 100 100 97 100 100 100 78 39 79 69 87 99 95 92 38
100 100 100 100 91 100 100 100 100 99 100 99 60 94 65 70 100 100 94 100 98 3
100 100 100 100 99 100 100 100 100 100 34 44 96 87 100 89 100 100 100 52 71 42
86 63 53 60 96 97 97 100 100 100 100 100 89 97 100 100 100 76 59 100 98 63
5 8 50 57 20 42 73 99 100 100 100 100 100 100 100 100 100 97 98 99 96 97
5 7 16 6 58 100 100 100 100 100 100 98 100 100 100 99 100 100 100 100 100 100
5 5 72 100 100 100 100 100 100 100 93 98 98 100 100 100 74 100 100 100 100 100
51 39 51 100 100 100 100 100 100 100 100 100 100 100 99 100 95 100 100 100 100 99
10 80 76 96 95 100 97 100 100 100 100 100 100 100 100 100 100 97 100 100 100 49
90 97 76 89 99 100 100 100 100 100 100 100 100 100 96 86 96 100 100 100 79 11
92 98 100 90 64 100 100 100 100 100 100 100 96 13 93 100 100 100 100 67 60 5
100 99 54 56 100 100 100 99 79 55 58 61 78 100 100 100 100 100 81 81 30 5

GFSNIL_prec_cloud_030.txt.gz
Cloud_Cover
100 45 100 100 100 100 100 100 100 100 100 100 100 100 100 100 100 99 46 28 8 30
99 100 100 100 100 100 100 100 100 100 100 100 100 100 100 100 100 90 79 86 90 72
75 97 100 100 100 100 100 100 94 100 100 100 100 100 100 100 75 100 65 100 100 98
100 99 100 100 100 100 100 100 100 100 100 100 100 100 100 100 100 100 100 100 100 100
100 100 100 100 100 100 100 100 100 100 100 100 100 100 100 100 94 100 100 100 100 100
97 100 100 100 100 100 100 100 100 100 100 100 100 100 99 100 100 100 98 97 98 99
56 78 92 97 100 100 91 100 100 100 100 100 100 97 86 89 100 100 87 100 100 97
39 51 50 52 70 74 94 100 100 100 100 100 100 100 100 100 100 100 100 100 100 98
5 5 5 5 12 99 100 100 100 100 100 100 100 100 100 100 100 100 100 100 100 100
25 10 5 29 59 55 95 100 100 100 100 100 98 91 100 100 100 100 100 100 100 100
14 5 6 10 70 100 100 98 84 78 98 100 100 97 100 100 100 100 98 100 100 100
63 46 45 98 93 70 30 82 94 100 100 92 100 98 100 100 74 96 100 99 100 87
26 82 88 67 100 100 100 100 100 100 100 100 96 66 100 100 97 72 54 62 7 5
85 100 100 100 100 100 100 80 88 100 99 85 92 100 100 89 46 15 31 5 5 5

GFSNIL_prec_cloud_033.txt.gz
Cloud_Cover
12 100 99 86 100 100 100 100 100 100 100 100 100 100 100 100 100 100 100 100 61 100
81 74 100 100 100 100 100 100 100 100 76 100 100 100 100 100 100 100 100 100 100 100
99 74 73 95 100 100 100 100 100 90 100 100 100 100 100 100 100 100 100 86 100 100
97 100 100 100 100 99 100 100 100 100 100 100 100 100 100 100 100 100 100 83 100 100
100 100 100 100 100 100 100 100 100 100 100 100 100 100 100 100 100 100 100 100 100 99
100 100 100 100 100 100 100 100 100 100 100 100 100 100 100 100 100 100 100 100 100 83
100 100 100 100 100 100 100 100 100 100 100 100 100 100 100 100 80 100 100 100 100 100
100 100 100 100 100 100 100 99 79 100 100 100 100 100 100 100 100 100 100 100 100 100
13 14 50 51 41 48 59 81 100 93 100 89 100 100 100 100 97 93 100 100 100 100
5 57 84 87 87 81 82 50 100 100 100 98 100 100 88 99 100 100 100 100 100 99
5 5 5 5 5 10 68 98 98 100 100 98 95 98 74 100 100 100 100 81 91 51
98 100 100 100 100 99 96 92 100 100 80 46 71 91 99 100 100 77 42 6 5 5
19 49 84 80 100 100 98 86 98 80 93 97 37 13 35 38 28 6 6 13 5 5
44 95 99 83 91 98 96 90 65 52 31 18 30 28 32 28 42 95 99 100 83 34

GFSNIL_prec_cloud_036.txt.gz
Cloud_Cover
94 29 80 100 88 68 100 100 11 94 100 100 100 100 94 100 100 100 100 100 100 100
36 60 100 100 100 100 89 100 100 100 100 100 100 100 96 95 100 100 100 100 100 100
66 100 100 100 98 100 100 100 100 100 100 100 100 100 100 100 100 100 100 100 100 100
88 100 100 100 99 100 100 100 100 100 100 100 100 100 100 100 100 100 100 100 100 100
96 98 100 100 100 100 100 100 100 100 100 100 100 100 100 100 100 100 100 100 100 100
89 41 100 71 100 100 100 100 100 100 100 100 100 100 100 100 100 100 100 100 100 100
81 88 39 100 100 100 100 100 100 100 100 100 100 100 100 100 100 100 100 99 100 99
7 14 100 100 100 100 100 100 100 100 100 100 100 100 100 92 100 100 100 99 83 92
99 100 100 100 100 100 100 100 28 9 10 78 66 100 65 100 100 86 68 52 44 100
3 4 5 12 24 65 61 9 5 28 91 81 89 86 72 62 88 31 11 63 100 100
53 5 5 5 5 5 9 38 40 13 11 5 5 8 46 54 93 82 95 100 41 13
5 5 5 5 5 5 5 10 40 48 72 100 100 100 100 91 100 100 100 58 12 9
25 13 9 20 16 43 57 97 100 99 98 94 97 89 79 26 6 5 6 5 5 63
54 52 56 100 88 79 88 100 97 99 56 12 44 32 5 5 5 5 5 11 65 99

GFSNIL_prec_cloud_039.txt.gz
Cloud_Cover
31 64 87 68 33 72 99 100 100 98 99 100 100 100 100 100 100 100 100 100 100 100
44 100 100 17 84 100 100 100 100 100 100 100 100 68 100 100 100 100 100 100 100 100
100 95 100 95 100 100 76 79 100 100 100 100 100 100 100 100 100 100 100 100 100 100
97 100 100 100 100 100 100 100 100 100 100 100 100 100 100 100 100 100 100 100 100 100
100 100 100 100 100 100 100 100 100 100 100 100 100 100 100 100 100 100 100 100 100 100
100 100 100 100 100 100 100 100 100 100 100 100 100 100 100 100 100 100 99 100 100 100
80 100 100 100 100 100 100 100 100 100 100 100 100 100 100 100 100 100 100 100 100 100
45 49 57 88 100 100 100 100 100 100 100 100 100 100 100 100 100 100 100 100 100 100
0 20 33 62 100 99 100 100 100 100 100 100 100 100 100 100 100 100 100 100 76 84
0 0 0 6 21 69 96 100 64 27 19 46 76 70 100 100 96 66 66 36 10 91
0 4 2 2 6 39 33 4 5 5 6 24 46 17 13 6 17 20 64 100 100 100
4 5 7 66 42 38 56 60 59 42 24 18 17 19 32 61 30 65 99 100 100 73
24 2 0 0 0 5 26 45 7 22 95 100 100 100 81 100 84 83 96 98 49 13
4 2 0 0 1 5 5 5 22 61 84 57 36 66 39 10 76 98 58 8 50 38

GFSNIL_prec_cloud_042.txt.gz
Cloud_Cover
10 62 54 83 80 61 100 100 100 100 100 100 100 100 100 100 96 100 100 100 100 100
100 100 81 98 100 100 100 100 90 100 100 100 100 100 100 100 100 100 100 100 100 100
99 100 100 100 100 100 100 95 100 100 100 100 100 100 100 100 100 100 100 100 100 100
100 100 100 100 100 100 100 100 100 100 100 100 100 100 100 100 100 100 100 100 100 100
100 100 100 100 100 100 100 100 100 100 100 100 100 100 100 100 100 100 100 100 100 100
100 100 100 100 100 100 100 100 100 100 100 100 100 100 100 100 100 100 100 100 100 100
100 100 100 100 100 100 100 100 100 100 100 100 100 100 100 100 100 100 100 100 100 100
100 100 100 100 100 100 100 100 100 100 100 100 100 100 100 100 100 100 100 100 100 100
100 100 100 100 100 100 100 100 100 100 100 100 100 100 100 100 100 100 100 100 100 100
100 100 100 100 100 100 100 100 100 100 100 100 100 100 100 100 100 100 100 100 100 100
100 100 100 98 86 52 12 48 100 99 99 100 100 100 97 78 100 98 73 91 100 100
70 97 90 15 5 18 92 65 10 0 0 0 34 11 10 8 10 30 36 85 100 100
1 0 1 5 5 41 0 0 0 0 1 6 64 11 25 97 100 100 96 99 98 67
0 3 4 2 3 5 5 5 29 62 57 65 79 100 100 100 100 87 70 10 18 40

GFSNIL_prec_cloud_045.txt.gz
Cloud_Cover
100 100 100 100 100 100 99 100 90 100 95 100 100 100 100 100 100 100 100 94 96 97
57 62 97 99 87 100 96 100 100 100 46 100 100 100 100 100 100 100 100 100 100 100
97 75 100 100 100 100 100 100 90 100 100 100 100 100 100 100 100 100 100 100 100 100
100 100 100 94 100 100 100 100 100 100 100 100 100 100 100 100 100 100 100 100 100 100
100 100 100 100 100 100 100 100 100 100 100 100 100 100 100 100 100 100 100 100 100 100
100 100 100 100 100 100 100 100 100 100 100 100 100 100 100 100 100 100 100 100 100 100
95 100 100 100 100 100 100 100 100 100 100 100 100 100 100 100 100 100 100 100 100 100
4 45 100 100 100 97 100 100 100 100 100 100 100 100 100 100 100 100 100 100 100 100
0 30 100 100 100 100 100 100 100 100 100 100 100 100 100 100 100 100 100 100 100 100
33 68 100 100 100 100 100 100 100 100 100 100 100 100 100 100 97 100 100 100 100 100
100 100 100 100 100 100 100 100 100 100 100 100 100 100 100 100 100 100 100 100 100 100
100 100 100 100 100 100 100 100 100 100 100 100 100 100 100 100 100 100 100 100 100 100
100 100 100 100 100 100 99 65 99 100 100 100 100 100 100 100 100 98 86 99 100 100
99 100 100 77 70 33 67 85 100 100 100 100 98 100 82 55 73 88 100 100 100 100

GFSNIL_prec_cloud_048.txt.gz
Cloud_Cover
100 100 100 100 100 100 100 100 100 100 100 100 54 93 91 88 100 100 100 100 100 100
100 75 100 100 100 100 100 97 88 100 100 100 99 49 40 67 100 100 100 100 100 100
100 100 100 100 100 100 100 100 100 100 100 95 93 88 99 99 100 100 100 100 100 100
64 100 100 90 87 100 100 100 100 95 100 100 100 100 100 100 100 100 100 100 100 100
100 100 100 100 99 100 74 87 86 100 100 100 100 100 100 100 100 100 100 100 100 100
100 100 56 63 82 65 97 50 100 100 100 100 100 100 100 98 100 100 100 100 100 100
94 100 100 100 91 100 100 100 98 100 100 100 100 100 100 100 100 100 100 100 100 100
0 2 7 88 100 100 100 98 99 100 100 100 100 100 98 100 100 100 100 100 100 100
0 0 0 0 2 100 100 100 100 100 100 100 100 100 100 100 100 100 100 100 100 100
0 0 0 45 100 100 100 100 100 100 100 100 100 100 100 100 100 100 100 100 93 100
1 28 84 100 100 100 100 100 100 100 100 100 100 100 100 100 100 100 100 100 100 100
88 100 100 100 100 100 100 100 100 100 100 100 100 100 100 100 100 100 100 100 100 100
100 100 100 100 100 100 100 100 100 100 100 100 100 100 100 100 100 100 100 100 100 100
100 100 100 100 100 100 100 100 100 100 100 100 100 100 100 100 100 100 100 100 100 100

GFSNIL_prec_cloud_051.txt.gz
Cloud_Cover
100 100 100 100 100 100 100 100 100 100 100 100 100 100 100 100 58 49 38 47 44 76
59 100 100 100 100 100 100 100 100 100 100 100 100 100 96 55 46 39 67 98 100 100
16 73 54 95 100 100 100 99 96 97 100 100 98 100 100 98 100 68 99 100 100 100
0 2 51 100 83 100 98 99 100 94 97 88 100 100 99 100 95 94 100 100 100 100
2 4 67 83 23 46 98 92 100 100 100 100 100 100 100 100 100 100 100 100 100 100
2 81 100 100 98 96 37 8 99 75 69 99 99 100 100 100 100 100 100 99 100 100
0 1 49 96 100 91 95 100 100 86 84 63 86 84 100 100 100 94 100 100 100 100
0 0 0 2 74 98 91 100 100 100 100 98 84 90 97 100 100 100 99 100 100 100
5 5 0 0 0 0 0 6 93 100 100 100 100 100 100 100 100 100 100 100 100 100
5 11 6 31 5 5 3 29 64 89 98 100 100 100 100 100 100 100 100 100 100 100
97 67 27 48 46 72 98 100 98 100 100 100 100 100 100 100 100 100 100 100 100 100
65 100 100 100 100 100 100 100 100 100 100 100 100 100 100 100 100 100 100 100 100 100
52 100 100 100 100 100 100 100 100 100 100 100 100 100 100 100 100 100 100 100 100 100
100 100 100 100 100 100 100 100 100 100 100 100 100 100 100 100 100 100 100 100 100 100

GFSNIL_prec_cloud_054.txt.gz
Cloud_Cover
100 100 100 100 100 100 100 100 100 100 100 100 100 100 100 100 100 100 100 100 100 100
99 100 100 100 100 100 100 100 100 100 100 100 100 100 100 100 100 100 100 100 100 96
61 80 78 78 100 100 99 100 100 100 100 100 100 100 100 100 100 100 99 89 78 48
7 27 38 23 3 2 58 100 100 100 100 100 100 100 68 100 98 92 100 100 100 100
19 23 18 0 0 4 5 5 6 88 100 100 100 100 100 100 100 100 100 100 100 100
0 0 0 0 0 3 5 6 5 5 5 8 49 74 58 100 100 100 100 100 100 100
1 0 0 39 5 3 32 48 75 24 3 5 84 35 99 87 63 100 100 99 100 100
5 5 5 5 0 0 0 9 12 74 95 100 98 100 96 99 99 82 43 77 100 100
5 5 5 5 5 5 4 5 5 0 0 0 26 49 100 97 87 99 100 100 100 100
29 5 5 5 5 5 14 20 16 12 20 40 74 100 100 100 70 100 100 100 100 100
100 80 62 61 74 90 94 45 83 99 99 100 100 100 100 100 100 100 100 100 100 100
92 94 100 100 100 100 98 100 100 100 100 100 100 100 100 100 100 100 100 100 100 100
100 100 100 100 100 100 100 100 100 100 100 100 100 100 100 100 100 100 100 100 100 100
100 100 100 100 100 100 100 100 100 100 100 100 100 100 100 100 100 100 100 100 100 100

GFSNIL_prec_cloud_057.txt.gz
Cloud_Cover
100 100 100 100 100 100 100 100 100 100 100 100 100 100 100 100 100 100 100 100 100 100
100 100 100 100 100 100 100 100 100 100 100 100 100 100 100 100 100 100 100 100 100 100
72 100 100 100 100 100 100 100 100 100 100 100 100 100 100 100 100 100 100 100 100 100
85 93 100 95 81 91 100 100 100 100 100 100 100 100 100 100 100 100 100 100 100 100
0 2 54 9 0 6 10 26 0 1 4 10 16 18 20 27 100 71 100 100 100 100
0 0 0 0 0 1 0 0 0 8 5 4 0 2 2 5 5 8 12 75 93 100
64 2 5 0 0 0 0 2 0 3 2 2 0 0 5 3 4 10 17 5 100 58
3 100 100 7 3 3 5 4 0 0 0 0 2 17 26 75 18 72 61 92 100 19
0 5 64 5 5 8 5 5 5 5 5 6 3 0 0 5 4 7 5 37 100 100
5 5 3 1 77 29 57 85 64 17 5 23 60 12 92 47 10 49 50 46 70 88
45 46 82 40 6 90 100 100 100 56 23 6 15 49 55 95 89 72 49 60 74 100
57 84 97 78 97 96 100 100 100 100 100 100 100 100 100 100 100 100 100 100 100 100
50 45 54 100 92 96 97 100 100 88 100 100 100 100 100 100 100 100 100 100 100 100
52 100 100 100 85 41 87 100 100 100 100 100 100 100 100 100 100 100 100 100 100 100

GFSNIL_prec_cloud_060.txt.gz
Cloud_Cover
100 100 100 100 100 100 100 100 99 100 100 99 100 100 100 100 100 100 100 100 100 100
100 100 100 100 100 100 100 100 100 100 100 100 100 100 100 100 100 100 100 100 100 100
93 99 100 100 100 100 100 100 100 100 100 100 100 100 100 100 100 100 100 100 100 100
100 100 100 100 100 100 100 100 100 100 100 100 100 100 100 100 100 100 100 100 100 100
64 100 91 13 4 3 3 54 100 98 100 100 100 100 100 100 100 100 100 100 100 100
22 27 38 25 0 0 0 0 0 0 0 0 0 3 22 32 34 3 12 49 41 88
0 0 0 15 15 0 0 0 0 0 0 0 0 0 0 0 0 0 0 2 3 5
0 2 4 12 2 91 94 25 15 17 2 0 3 0 0 0 0 0 2 16 5 3
5 5 5 5 15 46 33 98 33 28 22 18 19 5 5 3 4 24 30 32 65 29
100 100 52 5 4 5 4 35 28 20 87 46 52 96 28 25 44 37 43 41 49 39
100 100 11 5 5 60 5 5 32 39 38 95 95 100 99 98 100 89 80 92 80 82
6 5 5 5 22 100 92 42 82 41 100 59 81 99 88 100 100 100 100 100 100 100
100 100 100 100 100 92 43 64 100 100 100 100 100 100 100 100 100 100 100 100 100 100
84 100 100 100 100 80 92 100 100 100 100 100 100 100 100 100 100 100 100 100 100 100

GFSNIL_prec_cloud_063.txt.gz
Cloud_Cover
100 100 96 100 99 99 100 100 100 100 100 100 100 100 100 100 100 100 100 100 100 100
100 100 100 100 100 100 100 100 100 100 100 100 100 100 100 100 100 100 100 100 100 100
100 100 99 38 100 100 100 100 100 100 100 100 100 100 100 100 100 99 100 100 98 100
100 100 100 86 0 76 100 100 100 100 100 100 100 100 100 100 100 100 100 100 100 100
100 100 100 100 100 82 5 4 98 100 100 100 100 100 100 100 100 100 100 100 100 100
18 57 99 100 100 100 100 51 3 0 0 0 4 24 48 78 84 64 14 39 62 77
70 7 1 64 100 100 100 100 37 1 0 0 0 0 0 0 0 0 0 0 0 1
100 88 3 0 14 100 100 100 84 28 1 0 4 2 0 0 0 3 2 4 4 1
100 100 23 18 42 18 80 100 86 23 14 43 7 0 2 2 1 5 5 26 11 46
100 84 76 9 7 26 89 92 89 42 58 21 26 26 68 76 18 20 30 66 97 88
100 93 90 26 6 54 13 44 26 30 9 52 35 78 90 100 100 100 100 100 100 100
100 100 91 94 97 100 71 74 8 90 100 100 88 43 99 100 100 100 100 100 100 100
100 99 62 54 100 92 64 16 100 92 100 100 100 100 100 100 100 100 100 100 100 100
100 100 100 100 94 89 91 97 100 100 100 100 100 100 100 100 100 100 100 100 100 100

GFSNIL_prec_cloud_066.txt.gz
Cloud_Cover
100 66 100 80 60 100 64 100 100 100 100 100 100 100 100 100 100 100 100 100 100 100
81 42 0 92 100 100 29 99 100 100 100 100 100 100 100 100 100 100 100 100 100 100
33 32 36 15 0 5 100 68 100 100 100 100 99 100 100 99 100 100 85 77 100 100
97 49 99 96 27 0 0 4 74 100 100 100 100 100 100 91 83 93 72 88 88 100
10 42 100 100 100 97 6 0 5 4 30 94 100 100 100 100 99 86 100 100 100 100
25 26 3 24 98 100 100 78 20 1 4 5 5 5 53 96 95 68 79 85 92 90
51 6 5 5 82 69 88 100 100 82 12 0 0 3 5 3 4 5 4 0 0 0
100 100 64 42 77 100 100 19 96 100 100 92 22 44 2 0 0 0 0 0 3 3
100 100 100 100 100 99 100 23 22 26 100 100 100 24 2 5 2 5 25 35 11 35
64 100 100 100 100 100 100 67 61 47 89 100 100 100 31 5 2 3 6 5 5 5
79 98 94 100 100 100 100 84 76 47 52 74 93 100 78 88 100 100 74 17 35 95
100 88 100 100 100 100 100 100 100 67 96 98 100 100 99 100 100 100 100 100 100 100
100 100 100 100 100 100 100 100 100 100 100 100 98 100 100 100 100 100 100 100 100 100
60 90 99 100 100 100 100 100 100 100 100 100 100 100 100 100 100 100 100 100 100 100

GFSNIL_prec_cloud_069.txt.gz
Cloud_Cover
10 17 91 100 100 100 100 98 100 100 100 100 100 100 100 100 100 100 100 100 100 100
17 7 2 21 100 100 100 100 100 100 100 100 100 100 100 100 100 100 100 100 100 100
42 73 0 0 46 100 85 94 37 97 77 100 100 100 100 100 100 100 100 100 100 100
34 83 8 0 0 4 8 37 48 100 40 95 100 100 100 100 100 99 100 100 99 100
34 28 90 18 0 0 0 2 37 79 100 100 100 100 100 99 98 98 88 54 83 100
62 46 33 47 98 100 95 75 46 18 0 2 50 96 100 100 100 100 100 92 80 99
100 88 99 79 28 8 16 82 100 92 23 5 2 0 0 23 69 80 60 77 13 9
100 100 100 100 100 99 98 80 53 54 100 100 64 6 3 0 0 0 0 0 0 1
100 100 100 100 100 100 100 100 100 100 100 78 100 100 98 63 17 3 69 98 40 5
61 100 100 100 100 100 100 100 100 100 100 99 99 100 100 96 100 100 94 77 14 55
100 80 48 52 85 100 100 100 100 100 100 100 100 100 100 100 100 100 100 100 84 51
100 100 100 100 100 100 100 100 100 100 100 100 100 100 100 100 100 100 100 100 100 100
100 100 100 100 100 100 100 100 100 100 100 100 100 100 100 100 100 100 100 100 100 100
100 100 100 100 100 100 100 100 100 100 100 100 100 100 100 100 100 100 100 100 100 100

GFSNIL_prec_cloud_075.txt.gz
Cloud_Cover
100 100 100 100 100 100 100 100 100 100 100 100 100 100 100 100 100 100 100 100 100 100
100 100 100 100 100 98 100 100 100 100 100 100 100 100 100 100 100 100 100 100 100 100
24 97 100 100 100 100 100 100 100 95 91 100 100 100 100 100 100 100 100 100 100 100
66 54 64 99 100 100 100 100 100 100 100 100 100 100 100 100 100 100 100 100 100 100
99 95 91 73 50 78 100 100 100 100 100 100 100 100 96 100 100 100 100 100 100 100
100 100 100 82 61 46 41 66 96 100 100 100 100 54 55 97 96 85 95 100 100 100
100 100 100 91 71 64 50 53 48 48 55 35 46 59 100 100 100 100 81 37 52 76
100 100 100 100 100 98 89 51 97 48 23 30 78 100 100 100 100 100 100 100 88 23
100 100 100 100 100 100 100 100 100 100 100 100 100 100 100 100 100 100 100 100 86 53
100 100 100 100 100 100 100 100 100 100 100 100 100 100 100 100 100 100 100 100 100 100
100 99 100 100 100 100 100 100 100 100 100 100 100 100 100 100 100 100 100 100 100 100
100 100 100 100 100 100 100 100 100 100 100 100 100 100 100 100 100 100 100 100 100 100
100 100 100 100 100 100 100 100 100 100 100 100 100 95 87 84 100 100 100 100 100 100
100 100 100 100 100 100 100 100 100 100 100 100 98 100 100 100 100 100 100 100 100 100

GFSNIL_prec_cloud_081.txt.gz
Cloud_Cover
8 100 100 100 89 100 100 100 100 100 100 100 100 100 100 100 100 100 100 100 100 100
52 100 100 71 36 100 100 100 97 98 100 100 100 100 100 100 100 100 100 100 100 100
89 98 81 80 94 100 100 100 99 100 100 100 100 100 100 100 100 100 100 100 100 100
100 100 84 84 81 100 100 100 100 100 100 100 100 100 100 100 100 100 100 100 100 100
100 100 88 100 100 77 100 100 100 100 100 100 100 100 100 100 100 100 100 100 100 100
100 97 20 78 56 84 100 100 100 100 100 100 100 100 100 100 100 100 100 100 100 100
100 100 99 100 100 100 100 100 100 100 100 100 100 100 100 100 100 100 100 99 100 100
100 100 99 85 70 100 100 100 100 100 100 100 100 100 100 100 100 100 100 100 100 100
100 100 100 100 100 100 100 100 100 100 100 100 100 100 100 79 98 100 95 100 100 100
100 100 100 100 100 100 100 100 100 100 100 100 100 100 100 100 100 100 100 100 100 100
100 100 100 100 100 100 100 100 100 100 100 100 100 100 100 100 100 100 100 100 100 100
100 100 100 100 100 100 100 100 100 100 100 100 100 100 100 100 100 100 100 100 100 100
100 100 100 100 100 100 100 100 100 100 100 99 100 100 95 100 100 100 100 100 100 98
100 100 100 100 100 100 100 100 100 100 100 100 100 100 100 100 100 100 100 100 100 100

GFSNIL_prec_cloud_084.txt.gz
Cloud_Cover
100 2 1 28 45 47 98 100 100 100 100 100 100 100 100 100 100 100 100 100 100 100
26 7 16 100 100 15 83 100 100 100 100 100 100 100 100 100 100 100 100 100 100 100
46 96 100 100 22 75 89 100 100 100 100 100 100 100 100 100 100 100 100 100 100 100
98 100 100 100 96 100 100 100 100 100 100 100 100 100 100 100 100 100 100 100 100 100
100 100 100 100 100 100 100 100 100 100 100 100 100 100 100 100 100 100 100 100 100 100
100 100 100 100 100 100 100 100 100 100 100 100 100 100 100 100 100 100 100 100 100 100
100 100 100 100 100 100 100 100 100 100 100 100 100 100 100 100 100 100 100 100 100 100
100 100 100 100 100 100 100 100 100 100 100 100 100 100 100 100 100 100 100 100 100 100
100 100 100 100 100 100 100 100 100 100 100 100 100 100 100 100 100 100 100 100 100 100
100 100 100 100 100 100 100 100 100 100 100 100 100 100 100 100 100 100 100 100 100 100
100 100 100 100 100 100 100 100 100 100 100 100 100 100 100 100 100 100 100 100 100 100
100 100 100 100 100 100 100 100 100 100 100 100 100 100 100 100 100 100 100 100 100 100
100 100 100 100 100 100 100 100 100 100 100 100 100 100 100 90 100 100 100 100 100 100
100 100 100 100 100 100 100 100 100 100 100 100 100 100 100 100 100 100 100 100 100 100

GFSNIL_prec_cloud_087.txt.gz
Cloud_Cover
5 94 24 35 5 68 73 96 100 74 100 100 100 100 100 100 100 100 100 100 100 100
88 100 99 5 8 44 93 100 97 100 100 100 100 100 100 100 100 100 100 100 100 100
100 100 82 26 100 90 70 100 100 100 100 100 100 100 100 100 100 100 100 100 100 100
100 100 100 100 100 49 48 96 100 98 100 100 100 100 100 100 100 100 100 100 100 100
100 100 100 100 100 100 100 100 100 100 100 100 100 100 100 100 100 100 100 100 100 100
100 100 100 100 100 100 100 100 100 100 100 100 100 100 100 100 100 100 100 100 100 100
100 100 100 100 100 100 100 100 100 100 100 100 100 100 100 100 100 100 100 100 100 100
100 100 100 100 100 100 100 100 100 100 100 100 100 100 100 100 100 100 100 100 100 100
100 100 100 100 100 100 100 100 100 100 100 100 100 100 100 100 100 100 100 100 100 100
100 100 100 100 100 100 100 100 100 100 100 100 100 100 100 100 100 100 100 100 100 100
100 100 100 100 100 100 100 100 100 100 100 100 100 100 100 100 100 100 100 100 100 100
100 100 100 100 100 100 100 100 100 100 100 100 100 100 100 100 100 100 100 100 100 100
100 100 100 100 100 100 100 100 100 100 100 100 100 100 100 100 100 100 100 100 100 100
100 100 100 100 100 100 100 100 100 100 100 100 100 100 100 100 100 100 100 100 100 100

GFSNIL_prec_cloud_090.txt.gz
Cloud_Cover
99 32 94 63 38 100 76 71 100 100 100 100 100 100 100 100 100 100 100 100 100 100
54 23 100 22 21 75 100 100 86 70 100 100 100 100 100 100 100 100 100 100 100 100
56 95 89 5 41 100 100 100 100 100 98 100 98 100 100 100 100 100 100 100 100 100
51 46 29 66 99 100 100 83 96 100 100 100 100 100 100 100 100 100 100 100 100 100
100 100 100 79 100 100 100 100 100 100 100 100 100 100 100 100 100 100 100 100 100 100
100 100 100 100 100 100 100 100 100 100 100 100 100 100 100 100 100 100 100 100 100 100
100 100 100 100 100 100 100 100 100 100 100 100 100 100 100 100 100 100 100 100 100 100
100 100 100 100 100 100 100 100 100 100 100 100 100 100 100 100 100 100 100 100 100 100
100 100 100 100 100 100 100 100 100 100 100 100 100 100 100 100 100 100 100 100 100 100
100 100 100 100 100 100 100 100 100 100 100 100 100 100 100 100 100 100 100 100 100 100
100 100 100 100 100 100 100 100 100 100 100 100 100 100 100 100 100 100 100 100 100 100
100 100 100 100 100 100 100 100 100 100 100 100 100 100 100 100 100 100 100 100 100 100
100 100 100 100 100 100 100 100 100 100 100 100 100 100 100 100 100 100 100 100 100 100
100 100 100 100 100 100 100 100 100 100 100 100 100 100 100 100 100 100 100 100 100 100

GFSNIL_prec_cloud_096.txt.gz
Cloud_Cover
100 100 100 100 100 100 100 100 100 100 100 100 100 82 100 100 100 100 100 100 100 100
100 100 100 100 100 100 100 100 100 100 100 100 49 100 100 96 100 100 100 100 100 100
100 100 100 100 100 100 100 100 100 100 100 100 100 100 100 100 100 100 100 100 100 100
100 100 100 100 100 100 100 100 100 100 100 100 100 100 100 100 100 100 100 100 100 100
100 100 100 100 100 100 89 66 96 100 100 100 100 100 100 100 100 100 100 100 100 100
100 100 100 100 100 100 100 55 66 83 100 100 100 96 100 100 100 100 100 100 100 100
100 100 100 100 100 100 100 100 100 100 100 100 100 100 100 100 100 100 100 100 100 100
100 100 100 100 100 100 100 100 100 100 100 100 100 100 100 100 100 100 100 100 100 100
100 100 100 100 100 100 100 100 100 100 100 100 100 100 100 100 100 100 100 100 100 100
100 100 100 100 100 100 100 100 100 100 100 100 100 100 100 100 100 100 100 100 100 100
100 100 100 100 100 100 100 100 100 100 100 100 100 100 100 100 100 100 100 100 100 100
100 100 100 100 100 100 100 100 100 100 100 100 100 100 100 100 100 100 100 100 100 100
100 100 100 100 100 100 100 100 100 100 100 100 100 100 100 100 100 100 100 100 100 100
100 100 100 100 100 100 100 100 100 100 100 100 100 100 100 100 100 100 100 100 100 100

GFSNIL_prec_cloud_099.txt.gz
Cloud_Cover
100 100 100 100 100 37 100 100 100 100 100 100 100 100 100 95 100 100 98 100 100 100
100 100 100 100 85 100 100 100 100 100 100 100 100 98 100 100 100 100 100 100 100 100
100 99 100 100 100 100 100 100 100 100 100 100 100 100 100 100 100 100 100 100 100 100
100 100 100 100 100 100 100 100 100 100 100 100 100 100 100 100 100 100 100 100 100 100
100 100 100 100 100 100 100 100 100 100 100 100 100 100 100 100 100 100 100 100 100 100
100 100 100 100 100 100 100 100 100 100 100 100 100 100 100 100 100 94 93 100 100 100
100 100 100 100 100 100 98 100 100 100 100 100 100 100 100 98 100 100 100 100 100 100
100 100 100 100 100 100 100 100 100 100 100 100 100 100 100 100 100 100 100 100 100 100
100 100 100 100 100 100 100 100 100 100 100 100 100 100 100 100 100 100 100 100 100 100
100 100 100 100 100 100 100 100 100 100 100 100 100 100 100 100 100 100 100 100 100 100
100 100 100 100 100 100 100 100 100 100 100 100 100 100 100 100 100 100 100 100 100 100
100 100 100 100 100 100 100 100 100 100 100 100 100 100 100 100 100 100 100 100 100 100
100 100 100 100 100 100 100 100 100 100 100 100 100 100 100 100 100 100 100 100 100 100
100 100 100 100 100 100 100 100 100 100 100 100 100 100 100 100 100 100 100 100 100 100

GFSNIL_prec_cloud_102.txt.gz
Cloud_Cover
82 78 82 100 100 100 100 100 100 100 100 100 100 100 100 100 100 100 100 89 100 100
66 94 100 100 100 100 100 100 100 100 100 100 100 100 100 100 100 100 100 93 100 97
100 84 100 100 82 98 78 78 98 100 100 100 100 100 100 100 100 100 100 100 100 96
100 100 100 100 100 100 100 92 100 100 100 100 100 100 100 100 100 100 98 100 100 95
100 100 100 100 100 100 100 100 100 100 100 100 100 100 100 100 45 98 100 100 100 100
100 100 100 100 100 100 100 100 100 100 100 100 100 100 66 88 100 100 100 100 100 100
100 100 100 100 100 100 100 100 100 100 100 100 100 100 100 100 100 100 91 87 81 89
100 100 100 100 100 100 100 100 100 100 100 100 100 100 100 100 100 100 100 100 100 100
100 100 100 100 100 100 100 100 100 100 100 100 100 100 100 100 100 100 100 100 100 100
100 100 100 100 100 100 100 100 100 100 100 100 100 100 100 100 100 100 100 100 100 100
100 100 100 100 100 100 100 100 100 100 100 100 100 100 100 100 100 100 100 100 100 100
100 100 100 100 100 100 100 100 100 100 100 100 100 100 100 100 100 100 100 100 100 100
100 100 100 100 100 100 100 100 100 100 100 100 100 100 100 100 100 100 100 100 100 100
100 100 100 100 100 100 100 100 100 100 100 100 100 100 100 100 100 100 100 100 100 100

GFSNIL_prec_cloud_105.txt.gz
Cloud_Cover
100 100 100 77 44 26 55 67 70 100 100 100 100 100 100 100 100 100 100 100 100 100
100 100 99 16 43 99 62 72 97 100 100 100 100 98 84 100 100 100 100 86 100 100
100 100 90 100 100 100 100 81 89 97 93 100 100 100 100 100 100 100 100 100 100 100
100 100 100 100 100 100 92 96 100 100 100 100 100 100 100 100 100 100 100 100 100 100
100 100 100 100 91 100 89 100 100 21 99 100 100 98 100 100 100 100 100 100 85 100
100 100 100 100 100 100 100 82 100 100 100 100 100 100 100 100 100 100 100 100 66 90
100 100 100 100 100 100 100 100 100 100 100 100 100 100 100 100 100 100 100 96 100 100
100 100 100 100 100 100 100 100 100 100 100 100 100 100 100 100 100 100 100 100 100 100
100 100 100 100 100 100 100 100 100 100 100 100 100 100 100 97 100 100 100 100 100 100
100 100 100 100 100 100 100 100 100 100 100 100 100 100 100 100 100 100 100 100 100 100
100 100 100 100 100 100 100 100 100 100 100 100 100 100 100 100 100 100 100 100 100 100
100 100 100 100 100 100 100 100 100 100 100 100 100 100 100 100 100 100 100 100 100 100
100 100 100 100 100 100 100 100 100 100 100 100 100 100 100 100 100 100 100 100 100 100
100 100 100 100 100 100 100 100 100 100 100 100 100 100 100 100 100 100 100 100 100 100

GFSNIL_prec_cloud_108.txt.gz
Cloud_Cover
100 100 100 100 100 95 18 13 100 100 100 42 35 100 100 36 100 50 58 72 100 99
100 100 100 100 100 100 56 0 0 77 61 63 24 23 100 81 100 100 100 100 100 100
100 100 100 100 100 100 43 28 5 34 50 100 52 71 100 93 92 40 96 94 100 100
99 100 100 100 100 100 99 100 100 100 72 99 100 100 100 100 95 95 94 91 100 100
100 100 100 100 100 100 100 100 100 98 86 94 100 100 100 100 98 100 100 100 100 100
100 100 100 100 100 100 100 100 100 100 100 100 100 100 100 100 100 100 87 97 100 100
100 100 100 100 100 100 100 100 100 100 100 100 100 100 100 100 100 100 100 100 100 100
100 98 100 100 100 100 100 100 100 100 100 100 100 100 100 100 100 100 92 91 89 100
100 100 100 100 100 100 100 100 100 100 100 100 100 100 100 100 99 98 100 98 100 100
100 100 100 100 100 100 100 100 100 100 100 100 100 100 100 100 100 100 100 100 100 100
100 100 100 100 100 100 100 100 100 100 100 100 100 100 100 100 100 100 100 100 100 100
100 100 100 100 100 100 100 100 100 100 100 100 100 100 100 100 100 100 100 100 100 100
100 100 100 100 100 100 100 100 100 100 100 100 100 100 100 100 100 100 100 100 100 100
100 100 100 100 100 100 100 100 100 100 100 100 100 100 100 100 100 100 100 100 100 100

GFSNIL_prec_cloud_114.txt.gz
Cloud_Cover
100 100 100 100 100 100 100 100 100 100 100 100 100 100 18 25 48 23 54 9 100 100
99 100 100 100 100 100 100 100 100 100 100 100 100 100 65 54 33 44 100 100 100 99
100 100 100 100 100 100 100 100 100 100 100 100 100 100 86 8 3 74 100 100 100 100
100 100 100 100 100 100 100 100 100 100 100 100 100 100 95 90 27 100 100 100 100 100
100 100 100 100 100 100 100 100 100 100 100 100 100 100 100 100 100 100 100 100 97 99
100 100 100 100 92 96 100 100 100 100 100 100 100 100 100 100 100 100 100 100 100 94
100 100 100 100 64 83 90 100 100 100 100 100 100 100 100 100 100 100 100 100 100 100
100 100 100 100 100 100 90 100 100 100 100 100 100 100 100 100 100 100 98 100 100 100
100 100 100 100 100 100 76 83 100 100 100 100 100 100 100 100 100 100 100 100 100 100
70 98 99 100 100 100 100 87 98 100 100 100 100 100 100 100 100 100 100 100 100 100
100 100 100 100 100 100 100 100 100 100 100 100 100 100 100 100 100 100 100 100 100 100
100 100 100 100 100 100 100 100 100 100 100 100 100 100 100 100 100 100 100 100 100 100
100 100 100 100 100 100 100 100 100 100 100 100 100 100 100 100 100 100 100 100 100 100
90 100 100 100 100 100 100 100 100 100 100 100 100 100 100 100 100 100 100 100 100 100

GFSNIL_prec_cloud_117.txt.gz
Cloud_Cover
100 100 100 100 100 100 100 100 100 100 100 100 100 100 100 100 100 81 100 100 100 9
100 100 100 100 100 100 100 100 100 100 100 100 100 100 100 100 100 100 97 100 100 91
100 100 100 100 100 100 100 100 100 100 100 100 99 100 100 100 100 100 88 100 100 100
100 100 100 100 100 100 100 100 100 100 100 100 100 100 100 100 100 100 54 96 100 100
100 100 100 100 100 100 100 100 100 100 100 100 100 100 100 100 100 100 100 64 98 64
100 100 100 100 100 100 100 100 100 100 100 100 100 100 100 100 100 100 100 100 100 100
100 100 100 100 100 100 98 96 100 100 100 100 100 100 100 100 100 100 100 100 100 100
100 100 100 100 100 100 100 94 100 100 100 100 100 100 100 100 100 100 100 97 100 100
100 99 100 100 82 86 65 43 53 66 99 100 100 100 100 100 100 100 100 100 100 100
90 98 95 69 75 100 86 78 91 74 95 100 100 100 100 100 100 100 100 100 100 100
96 100 100 100 94 99 100 91 99 97 89 92 98 100 100 100 100 100 100 100 100 100
100 100 100 100 100 99 69 86 94 98 98 97 100 100 100 100 100 100 100 100 100 100
100 100 100 100 100 48 77 77 98 99 100 100 100 99 100 100 100 100 100 100 100 100
100 99 100 100 100 100 100 100 100 94 100 100 100 100 100 100 100 100 100 100 100 100

GFSNIL_prec_cloud_120.txt.gz
Cloud_Cover
100 100 100 100 100 100 100 100 100 100 100 100 100 100 100 100 100 100 100 100 87 92
100 100 100 100 100 100 100 100 100 100 100 100 100 100 100 100 100 100 100 100 100 85
100 100 100 100 100 100 100 100 100 100 100 100 100 100 100 100 100 100 100 100 100 99
100 100 100 100 100 100 100 100 100 100 100 100 100 100 100 100 100 100 100 100 100 100
100 100 100 100 100 100 100 100 100 100 100 100 100 100 100 100 100 100 100 100 100 100
100 100 100 100 100 100 100 100 100 100 100 100 100 100 100 100 100 100 100 100 100 100
100 100 100 100 100 100 100 100 100 100 100 100 100 100 100 100 100 100 100 100 100 100
93 92 96 100 100 100 100 100 100 100 100 100 100 100 100 99 100 100 100 100 100 100
85 100 100 100 100 99 100 98 100 100 100 100 100 100 100 100 96 100 100 100 100 100
100 100 100 100 100 84 86 98 100 100 100 100 100 100 100 100 98 100 100 100 100 100
100 100 100 100 79 78 85 98 100 100 100 100 100 100 98 96 99 98 91 96 100 100
100 100 100 100 100 100 100 100 95 100 99 98 97 100 100 98 100 100 84 97 100 100
100 100 100 100 100 100 100 100 99 100 100 100 100 100 100 100 100 97 100 100 99 100
100 100 100 100 100 100 100 100 100 98 98 97 100 100 100 100 100 100 100 100 100 100

GFSNIL_prec_cloud_126.txt.gz
Cloud_Cover
100 100 100 100 100 100 100 100 100 100 100 100 100 100 100 100 100 100 100 100 100 100
100 100 100 100 100 100 100 100 100 100 100 100 100 100 100 100 100 100 100 100 100 100
100 100 100 100 100 100 100 100 100 100 100 100 100 100 100 100 100 100 100 100 100 100
100 100 100 100 100 100 100 100 100 100 100 100 100 100 100 100 100 100 100 100 100 100
100 100 100 100 100 100 100 100 100 100 100 100 100 100 100 100 100 100 100 100 100 100
100 98 99 100 100 100 100 100 100 100 100 100 100 100 100 100 100 100 100 100 100 100
100 100 100 100 100 100 100 100 96 100 100 100 100 100 100 100 100 100 100 100 100 100
100 100 100 100 100 100 100 87 100 88 100 98 100 100 100 100 100 100 100 100 100 100
87 100 100 100 100 100 100 84 97 100 100 62 8 85 99 100 100 100 100 100 100 100
97 99 100 100 100 100 99 78 99 92 99 88 31 58 74 97 100 100 100 100 100 100
98 100 100 100 100 100 100 100 100 100 100 96 41 52 70 92 81 88 95 100 100 100
100 100 100 100 100 100 100 100 100 100 99 100 84 61 21 70 19 62 73 87 87 92
100 100 100 100 100 100 100 100 99 87 88 100 95 84 74 81 99 99 61 92 100 100
100 100 100 100 100 100 100 97 100 100 100 99 100 100 100 100 100 100 100 100 100 100

GFSNIL_prec_cloud_129.txt.gz
Cloud_Cover
100 100 100 100 100 100 100 100 100 100 100 96 99 100 100 100 100 100 100 100 100 100
100 100 100 100 100 100 100 100 100 100 100 100 100 100 100 100 100 100 100 100 100 100
100 100 100 100 100 100 100 100 100 100 100 100 100 100 100 100 100 100 100 100 100 100
100 100 97 100 100 100 100 100 100 100 100 100 100 100 100 100 100 100 100 100 100 100
100 100 100 100 100 100 100 100 100 100 100 100 100 100 100 100 100 100 100 100 100 100
39 23 20 100 100 100 100 100 100 100 100 100 100 100 100 100 100 100 100 100 100 100
5 5 5 98 100 100 100 100 100 100 100 100 100 99 100 100 100 100 100 100 100 100
5 5 5 74 100 100 100 100 100 100 100 100 100 91 100 100 100 100 100 100 100 100
5 5 5 68 100 100 100 100 98 100 100 100 100 100 100 100 99 92 94 89 81 95
12 6 59 89 100 100 100 100 100 100 100 100 100 100 93 86 96 91 100 94 95 87
25 65 83 100 100 100 100 100 100 100 100 100 100 72 98 99 84 89 96 100 94 96
100 99 99 100 100 100 100 100 100 100 100 100 100 92 86 95 89 74 72 80 74 12
74 99 100 100 100 100 100 100 100 100 100 100 76 81 82 57 98 94 84 86 89 72
98 100 100 100 100 100 100 100 100 100 91 80 100 94 77 90 97 100 100 100 100 98

GFSNIL_prec_cloud_132.txt.gz
Cloud_Cover
100 100 100 100 100 100 100 100 100 100 100 100 100 100 100 100 100 100 100 100 100 100
100 100 100 100 100 100 100 100 100 100 100 100 100 100 100 100 100 100 100 100 100 100
100 100 100 100 100 100 98 93 88 68 100 100 100 100 100 100 100 100 100 100 100 100
100 100 100 100 100 100 91 99 97 98 100 100 100 100 100 100 100 100 100 100 100 100
100 90 69 56 71 20 82 96 100 100 100 100 100 100 100 100 100 100 100 100 100 100
6 5 5 5 10 5 50 100 100 100 100 100 100 100 100 100 100 100 100 100 100 100
30 92 5 5 5 5 48 99 100 100 100 100 100 100 100 100 100 100 100 100 100 99
16 13 5 5 45 54 62 98 100 100 100 100 100 100 100 100 100 100 66 100 98 100
5 5 5 43 72 65 90 100 100 100 100 100 100 100 100 100 100 100 100 43 38 17
9 16 5 33 93 93 100 100 100 100 100 100 100 100 100 100 100 100 100 100 52 53
57 73 56 59 100 100 100 100 100 99 100 100 100 100 100 100 100 100 100 100 100 98
34 8 47 99 100 100 100 100 100 99 100 100 100 100 100 100 100 100 100 100 100 93
10 5 63 92 100 100 100 100 100 100 100 100 100 100 100 100 100 100 100 100 100 98
20 73 100 100 100 100 100 100 100 100 100 100 62 34 100 100 100 100 100 100 100 100

GFSNIL_prec_cloud_135.txt.gz
Cloud_Cover
95 100 99 98 100 100 100 100 100 100 100 100 100 100 100 100 100 100 100 100 100 100
100 96 100 100 100 100 99 82 57 96 96 100 100 100 99 100 100 100 100 100 100 100
100 100 100 100 100 85 94 97 95 100 95 85 98 100 100 100 100 100 100 100 100 100
100 97 31 56 56 34 26 50 27 54 49 52 64 98 100 100 100 100 100 100 100 100
7 6 5 5 5 5 5 17 5 69 72 5 100 100 100 100 100 100 100 100 100 100
5 5 5 43 24 51 65 5 5 21 88 100 93 95 100 100 100 100 100 100 100 100
5 5 5 5 5 5 5 9 44 56 100 100 93 100 100 100 100 100 100 100 100 100
5 5 5 5 5 5 5 5 66 97 100 100 100 100 100 100 100 100 100 100 100 100
5 5 5 35 5 5 5 20 88 100 100 100 100 100 100 100 100 100 100 100 100 100
5 5 30 14 5 5 20 26 100 100 100 100 100 100 100 97 91 100 100 100 100 100
9 10 47 5 5 5 24 98 100 100 100 100 100 100 100 100 100 100 99 100 100 100
71 57 74 40 6 65 63 100 100 100 100 100 100 100 100 100 100 100 100 100 100 100
94 100 31 5 5 44 99 100 100 100 100 100 100 100 100 93 100 100 100 100 100 100
100 46 5 5 6 34 100 100 100 100 100 100 100 100 100 100 81 98 100 100 100 100

GFSNIL_prec_cloud_138.txt.gz
Cloud_Cover
5 5 6 79 32 23 37 28 7 8 51 99 100 100 100 100 100 100 100 100 100 100
59 59 82 98 44 5 8 68 8 18 41 91 100 100 100 100 100 100 100 100 100 100
100 29 90 47 5 5 6 7 5 5 13 68 66 85 83 60 83 100 78 99 100 100
16 5 5 5 5 9 100 5 5 5 5 38 97 93 8 29 24 86 94 98 100 100
6 5 5 5 5 34 5 5 4 3 5 33 56 44 50 6 5 82 97 100 100 100
87 35 16 6 5 5 5 4 3 4 5 26 53 80 81 87 98 100 100 100 100 100
15 78 17 5 5 5 5 1 5 5 5 54 97 100 100 96 86 100 100 100 100 100
100 71 5 7 5 5 5 4 5 5 28 100 100 100 100 72 100 100 100 100 100 100
90 9 5 5 5 5 5 5 5 5 50 99 100 100 100 100 100 100 100 100 100 100
13 5 5 5 5 5 5 5 5 66 82 100 100 100 100 100 100 100 100 100 100 100
33 5 5 6 5 5 6 47 33 57 100 100 100 100 100 100 100 100 100 100 100 100
50 46 5 5 14 17 8 50 60 100 100 100 100 100 100 100 100 100 100 100 100 100
88 10 5 68 100 100 12 44 5 100 100 100 100 100 100 100 100 98 74 99 100 100
69 63 19 52 100 100 82 69 57 100 100 100 100 100 100 100 100 100 96 89 81 96